TimeEDT,TemperatureF,Dew PointF,Humidity,Sea Level PressureIn,VisibilityMPH,Wind Direction,Wind SpeedMPH,Gust SpeedMPH,PrecipitationIn,Events,Conditions,WindDirDegrees,DateUTC
12:53 AM,46.0,37.9,73,30.09,10.0,SSW,3.5,-,N/A,,Overcast,200,2012-10-07 04:53:00
1:53 AM,45.0,37.9,76,30.09,10.0,SSW,4.6,-,N/A,,Partly Cloudy,200,2012-10-07 05:53:00
2:53 AM,45.0,37.9,76,30.10,10.0,West,4.6,-,N/A,,Overcast,280,2012-10-07 06:53:00
3:53 AM,44.1,39.0,82,30.08,10.0,Calm,Calm,-,N/A,,Mostly Cloudy,0,2012-10-07 07:53:00
4:53 AM,44.1,39.0,82,30.07,10.0,WNW,3.5,-,N/A,,Mostly Cloudy,300,2012-10-07 08:53:00
5:53 AM,44.1,39.0,82,30.07,10.0,Calm,Calm,-,N/A,,Overcast,0,2012-10-07 09:53:00
6:53 AM,44.1,41.0,89,30.07,10.0,Calm,Calm,-,N/A,,Overcast,0,2012-10-07 10:53:00
7:53 AM,44.1,39.9,85,30.08,10.0,SW,3.5,-,0.00,,Overcast,230,2012-10-07 11:53:00
8:23 AM,44.6,41.0,87,30.07,10.0,SSW,3.5,-,N/A,,Overcast,210,2012-10-07 12:23:00
8:53 AM,45.0,41.0,86,30.09,10.0,WSW,4.6,-,N/A,,Overcast,240,2012-10-07 12:53:00
9:53 AM,46.0,41.0,83,30.10,10.0,WSW,3.5,-,N/A,,Overcast,240,2012-10-07 13:53:00
10:02 AM,46.4,41.0,81,30.09,10.0,SW,4.6,-,N/A,,Overcast,220,2012-10-07 14:02:00
10:20 AM,46.4,39.2,76,30.09,10.0,WSW,6.9,-,N/A,,Overcast,250,2012-10-07 14:20:00
10:37 AM,46.4,41.0,81,30.09,10.0,WSW,6.9,-,N/A,,Overcast,250,2012-10-07 14:37:00
10:53 AM,46.0,41.0,83,30.10,10.0,West,5.8,-,N/A,,Overcast,280,2012-10-07 14:53:00
11:01 AM,46.4,41.0,81,30.09,10.0,WSW,5.8,-,N/A,,Overcast,250,2012-10-07 15:01:00
11:32 AM,46.4,39.2,76,30.09,10.0,NW,9.2,-,N/A,,Overcast,310,2012-10-07 15:32:00
11:53 AM,45.0,39.0,80,30.09,10.0,WNW,6.9,-,N/A,,Overcast,290,2012-10-07 15:53:00
12:07 PM,44.6,39.2,81,30.09,9.0,WNW,3.5,-,0.00,Rain,Light Rain,300,2012-10-07 16:07:00
12:53 PM,46.0,41.0,83,30.10,10.0,WSW,6.9,-,0.02,Rain,Light Rain,250,2012-10-07 16:53:00
1:13 PM,46.4,41.0,81,30.09,9.0,WSW,9.2,-,0.01,Rain,Light Rain,250,2012-10-07 17:13:00
1:48 PM,44.6,39.2,81,30.09,7.0,West,6.9,-,0.03,Rain,Light Rain,280,2012-10-07 17:48:00
1:53 PM,44.1,39.9,85,30.11,10.0,WNW,8.1,-,0.03,Rain,Light Rain,290,2012-10-07 17:53:00
2:02 PM,44.6,39.2,81,30.09,9.0,WNW,6.9,-,0.01,Rain,Light Rain,290,2012-10-07 18:02:00
2:53 PM,43.0,37.9,82,30.11,10.0,WNW,9.2,-,0.03,Rain,Light Rain,300,2012-10-07 18:53:00
3:53 PM,44.1,37.9,79,30.11,10.0,WNW,5.8,-,0.01,,Overcast,300,2012-10-07 19:53:00
4:53 PM,45.0,39.0,80,30.12,10.0,WSW,11.5,-,N/A,,Overcast,250,2012-10-07 20:53:00
5:53 PM,44.1,37.0,76,30.12,10.0,SW,6.9,-,N/A,,Mostly Cloudy,230,2012-10-07 21:53:00
6:53 PM,43.0,36.0,76,30.14,10.0,SW,8.1,-,N/A,,Overcast,230,2012-10-07 22:53:00
7:53 PM,42.1,36.0,79,30.14,10.0,WSW,6.9,-,N/A,,Mostly Cloudy,240,2012-10-07 23:53:00
8:53 PM,42.1,37.0,82,30.16,10.0,West,6.9,-,0.00,Rain,Light Rain,270,2012-10-08 00:53:00
9:53 PM,42.1,37.9,85,30.16,10.0,South,5.8,-,0.00,Rain,Light Rain,190,2012-10-08 01:53:00
10:53 PM,42.1,37.9,85,30.17,10.0,South,4.6,-,0.00,,Overcast,180,2012-10-08 02:53:00
11:53 PM,42.1,37.9,85,30.16,10.0,South,5.8,-,N/A,,Overcast,180,2012-10-08 03:53:00